Date String (YYYY-MM-DD hh:mm:ss) UTC,Instrument flags,Ambient pressure (hPa),Sample flow (lpm),Bypass flow (lpm),Sample temperature (°C),Ambient temperature (°C),ASC tube jacket temperature (°C),LED temperature (°C),Box temperature (°C),Sample RH (%),Span deviation,Mass concentration (μg/m³),Mass concentration (μg/m³),Mass concentration (μg/m³)
DateTimeUTC,F1_M11,P_M11,Q1_M11,Q2_M11,T1_M11,T2_M11,T3_M11,T4_M11,T5_M11,U1_M11,ZSPAN_M11,X0_M11,X2_M11,X1_M11
2022-05-23 14:00:00,,0824.6,5.00,0.00,28.5,27.5,00.0,37.5,30.4,20.5,0000.0,0000.06,0000.03,0000.00
2022-05-23 14:01:00,,0824.6,5.00,0.00,28.5,27.5,00.0,37.5,30.4,20.7,0000.0,0000.06,0000.04,0000.00
2022-05-23 14:02:00,,0824.6,5.00,0.00,28.5,27.5,00.0,37.5,30.4,20.7,0000.0,0000.07,0000.04,0000.00
2022-05-23 14:03:00,,0824.6,5.00,0.00,28.5,27.5,00.0,37.5,30.4,20.7,0000.0,0000.07,0000.04,0000.00
2022-05-23 14:04:00,,0824.6,5.00,0.00,28.5,27.5,00.0,37.5,30.4,20.7,0000.0,0000.07,0000.04,0000.00
2022-05-23 14:05:00,,0824.6,5.00,0.00,28.5,27.5,00.0,37.5,30.4,20.9,0000.0,0000.05,0000.03,0000.00
2022-05-23 14:06:00,,0824.6,5.00,0.00,28.5,27.5,00.0,37.5,30.3,21.0,0000.0,0000.04,0000.02,0000.00
2022-05-23 14:07:00,,0824.7,5.01,0.00,28.5,27.5,00.0,37.5,30.3,21.0,0000.0,0000.04,0000.02,0000.00
2022-05-23 14:08:00,,0824.6,5.00,0.00,28.5,27.5,00.0,37.5,30.3,20.8,0000.0,0000.04,0000.02,0000.00
2022-05-23 14:09:00,,0824.6,5.00,0.00,28.5,27.5,00.0,37.5,30.3,20.8,0000.0,0000.04,0000.02,0000.00
2022-05-23 14:10:00,,0824.6,4.99,0.00,28.5,27.5,00.0,37.5,30.3,20.7,0000.0,0000.04,0000.02,0000.00
2022-05-23 14:11:00,,0824.7,5.00,0.00,28.5,27.5,00.0,37.5,30.3,20.8,0000.0,0000.01,0000.01,0000.00
2022-05-23 14:12:00,,0824.7,5.00,0.00,28.5,27.5,00.0,37.5,30.3,20.8,0000.0,0000.01,0000.00,0000.00
2022-05-23 14:13:00,,0824.7,5.00,0.00,28.5,27.5,00.0,37.5,30.3,21.1,0000.0,0000.00,0000.00,0000.00
2022-05-23 14:14:00,,0824.7,5.01,0.00,28.5,27.4,00.0,37.5,30.3,21.1,0000.0,0000.00,0000.00,0000.00
2022-05-23 14:15:00,,0824.7,4.99,0.00,28.5,27.4,00.0,37.5,30.3,21.2,0000.0,0000.00,0000.00,0000.00
2022-05-23 14:16:00,,0824.6,5.00,0.00,28.5,27.4,00.0,37.5,30.3,21.3,0000.0,0000.00,0000.00,0000.00
2022-05-23 14:17:00,,0824.8,5.00,0.00,28.5,27.4,00.0,37.5,30.3,21.1,0000.0,0000.00,0000.00,0000.00
2022-05-23 14:18:00,,0824.9,5.00,0.00,28.5,27.4,00.0,37.5,30.3,21.2,0000.0,0000.01,0000.01,0000.00
2022-05-23 14:19:00,,0824.7,5.00,0.00,28.5,27.4,00.0,37.5,30.3,21.2,0000.0,0000.05,0000.01,0000.00
2022-05-23 14:20:00,,0824.7,5.00,0.00,28.5,27.4,00.0,37.5,30.3,21.2,0000.0,0000.13,0000.02,0000.00
2022-05-23 14:21:00,,0824.7,5.00,0.00,28.5,27.4,00.0,37.5,30.3,21.2,0000.0,0000.13,0000.02,0000.00
2022-05-23 14:22:00,,0824.7,5.01,0.00,28.5,27.4,00.0,37.4,30.3,21.1,0000.0,0000.13,0000.02,0000.00
2022-05-23 14:23:00,,0824.8,5.00,0.00,28.5,27.5,00.0,37.4,30.3,21.3,0000.0,0000.13,0000.02,0000.00
2022-05-23 14:24:00,,0824.8,5.00,0.00,28.5,27.5,00.0,37.4,30.3,21.4,0000.0,0000.13,0000.02,0000.00
2022-05-23 14:25:00,,0824.8,5.00,0.00,28.5,27.5,00.0,37.4,30.3,21.4,0000.0,0000.13,0000.02,0000.00
2022-05-23 14:26:00,,0824.8,5.00,0.00,28.5,27.5,00.0,37.4,30.3,21.6,0000.0,0000.13,0000.02,0000.00
2022-05-23 14:27:00,,0824.8,4.97,0.00,28.5,27.5,00.0,37.4,30.3,21.5,0000.0,0000.13,0000.02,0000.00
2022-05-23 14:28:00,,0824.9,5.00,0.00,28.5,27.5,00.0,37.4,30.3,21.4,0000.0,0000.13,0000.02,0000.00
2022-05-23 14:29:00,,0824.9,5.01,0.00,28.5,27.5,00.0,37.4,30.3,21.6,0000.0,0000.12,0000.01,0000.00
2022-05-23 14:30:00,,0824.9,5.01,0.00,28.5,27.5,00.0,37.4,30.3,21.9,0000.0,0000.10,0000.01,0000.00
2022-05-23 14:31:00,,0824.9,5.00,0.00,28.5,27.5,00.0,37.4,30.3,21.8,0000.0,0000.00,0000.00,0000.00
2022-05-23 14:32:00,,0824.9,4.98,0.00,28.5,27.5,00.0,37.4,30.3,21.7,0000.0,0000.00,0000.00,0000.00
2022-05-23 14:33:00,,0824.8,5.00,0.00,28.5,27.5,00.0,37.4,30.3,21.5,0000.0,0000.00,0000.00,0000.00
2022-05-23 14:34:00,,0824.9,5.01,0.00,28.5,27.5,00.0,37.4,30.3,21.5,0000.0,0000.00,0000.00,0000.00
2022-05-23 14:35:00,,0824.9,5.00,0.00,28.5,27.5,00.0,37.4,30.4,21.8,0000.0,0000.00,0000.00,0000.00
2022-05-23 14:36:00,,0824.9,5.00,0.00,28.5,27.5,00.0,37.4,30.3,21.3,0000.0,0000.00,0000.00,0000.00
2022-05-23 14:37:00,,0824.9,5.00,0.00,28.5,27.5,00.0,37.4,30.3,21.5,0000.0,0000.00,0000.00,0000.00
2022-05-23 14:38:00,,0824.9,5.00,0.00,28.5,27.5,00.0,37.4,30.3,21.5,0000.0,0000.00,0000.00,0000.00
2022-05-23 14:39:00,,0825.0,5.00,0.00,28.5,27.5,00.0,37.4,30.3,21.6,0000.0,0000.00,0000.00,0000.00
2022-05-23 14:40:00,,0825.1,5.00,0.00,28.5,27.5,00.0,37.4,30.3,21.9,0000.0,0000.00,0000.00,0000.00
2022-05-23 14:41:00,,0825.0,5.01,0.00,28.5,27.5,00.0,37.4,30.3,21.7,0000.0,0000.00,0000.00,0000.00
2022-05-23 14:42:00,,0825.1,5.00,0.00,28.5,27.5,00.0,37.4,30.3,21.6,0000.0,0000.00,0000.00,0000.00
2022-05-23 14:43:00,,0825.2,5.00,0.00,28.5,27.5,00.0,37.4,30.3,21.4,0000.0,0000.79,0000.00,0000.00
2022-05-23 14:44:00,,0825.2,5.00,0.00,28.5,27.5,00.0,37.4,30.3,21.5,0000.0,0001.61,0000.00,0000.00
2022-05-23 14:45:00,,0825.2,5.00,0.00,28.5,27.5,00.0,37.5,30.3,21.5,0000.0,0001.61,0000.00,0000.00
2022-05-23 14:46:00,,0825.2,4.99,0.00,28.5,27.5,00.0,37.4,30.3,21.5,0000.0,0001.61,0000.00,0000.00
2022-05-23 14:47:00,,0825.2,5.00,0.00,28.5,27.5,00.0,37.4,30.3,21.3,0000.0,0001.61,0000.00,0000.00
2022-05-23 14:48:00,,0825.2,5.01,0.00,28.5,27.5,00.0,37.4,30.3,21.7,0000.0,0001.61,0000.00,0000.00
2022-05-23 14:49:00,,0825.2,5.00,0.00,28.5,27.5,00.0,37.4,30.3,22.0,0000.0,0001.61,0000.00,0000.00
2022-05-23 14:50:00,,0825.2,5.01,0.00,28.5,27.5,00.0,37.4,30.3,21.8,0000.0,0001.61,0000.00,0000.00
2022-05-23 14:51:00,,0825.3,4.98,0.00,28.5,27.4,00.0,37.4,30.3,21.7,0000.0,0001.61,0000.00,0000.00
2022-05-23 14:52:00,,0825.4,4.99,0.00,28.5,27.4,00.0,37.4,30.3,21.6,0000.0,0001.61,0000.00,0000.00
2022-05-23 14:53:00,,0825.4,5.02,0.00,28.5,27.4,00.0,37.4,30.3,21.5,0000.0,0001.61,0000.00,0000.00
2022-05-23 14:54:00,,0825.5,5.00,0.00,28.5,27.4,00.0,37.4,30.3,21.7,0000.0,0001.10,0000.00,0000.00
2022-05-23 14:55:00,,0825.5,5.00,0.00,28.5,27.4,00.0,37.4,30.3,21.9,0000.0,0000.01,0000.00,0000.00
2022-05-23 14:56:00,,0825.5,4.99,0.00,28.5,27.4,00.0,37.4,30.3,21.4,0000.0,0000.01,0000.00,0000.00
2022-05-23 14:57:00,,0825.5,5.01,0.00,28.5,27.4,00.0,37.4,30.3,21.5,0000.0,0000.01,0000.01,0000.00
2022-05-23 14:58:00,,0825.5,5.00,0.00,28.5,27.4,00.0,37.4,30.3,21.3,0000.0,0000.01,0000.00,0000.00
2022-05-23 14:59:00,,0825.4,5.00,0.00,28.5,27.4,00.0,37.4,30.3,21.4,0000.0,0000.01,0000.00,0000.00
